Starlink 3075

operational
NORAD ID: 49409 Int'l Des: 2021-104 Owner: SPXS Country: US Constellation: starlink
LEOCIRCULAR

About Starlink 3075

Description loading...

Live Position

Loading 3D Globe...

Upcoming Passes

Altitude History

Altitude vs Time

uPlot chart will show altitude changes over time

Two-Line Element Set

1 49409U 21104B 25344.10382720 .00001735 00000-0 12702-3 0 9996
2 49409 53.2182 271.2873 0001300 93.6086 266.5055 15.08846229225110
Epoch: Dec 10, 2025 • Age: 16 hours

Current Status

Altitude 557.1 km
Velocity 7.58 km/s
Sub-Earth Point -48.24°S, 139.03°W
Launch Date Nov 13, 2021
Age 4 years
Type internet

Technical Details

Classification Payload
Mass 290.00 kg
Dry Mass 270.00 kg
Total Mass 290.00 kg
Length 0.20 m
Diameter 2.80 m
Span 9.00 m
Shape Box + pan
Manufacturer SPXS
Bus Type Starlink
Phase Status In Orbit
Owner/State SPXS/US

Large Constellations

Loading constellations...